| time (UTC) | temp F | wind direction | speed knots | gust knots | rain 1hr in | rain 24hr in | rain mn in | humidity % | barometer mb |
| 20260901161627 | 60 | 195 | 0.9 | 3.5 | 0.00 | 0.00 | 0.00 | 83 | 1011.0 |
| 20260901160104 | 60 | 182 | 0.9 | 3.5 | 0.00 | 0.00 | 0.00 | 84 | 1011.0 |
| 20260901154620 | 59 | 0 | 0.9 | 3.5 | 0.00 | 0.00 | 0.00 | 84 | 1011.0 |
| 20260901153109 | 59 | 178 | 0.9 | 3.5 | 0.00 | 0.00 | 0.00 | 84 | 1011.1 |
| 20260901151601 | 59 | 160 | 0.9 | 3.5 | 0.00 | 0.00 | 0.00 | 85 | 1011.1 |
| 20260901150121 | 59 | 162 | 0.0 | 3.5 | 0.00 | 0.00 | 0.00 | 85 | 1011.2 |
| 20260901144600 | 59 | 0 | 0.9 | 4.3 | 0.00 | 0.00 | 0.00 | 85 | 1010.8 |
| 20260901143059 | 58 | 172 | 0.9 | 2.6 | 0.00 | 0.00 | 0.00 | 85 | 1010.8 |
| 20260901141602 | 58 | 0 | 0.0 | 1.7 | 0.00 | 0.00 | 0.00 | 85 | 1010.7 |
| 20260901134600 | 59 | 167 | 0.9 | 2.6 | 0.00 | 0.00 | 0.00 | 84 | 1010.3 |
| 20260901133055 | 59 | 0 | 0.0 | 3.5 | 0.00 | 0.00 | 0.00 | 84 | 1010.3 |
| 20260901131556 | 59 | 205 | 1.7 | 6.1 | 0.00 | 0.00 | 0.00 | 84 | 1010.2 |
| 20260901130059 | 59 | 0 | 0.0 | 0.9 | 0.00 | 0.00 | 0.00 | 85 | 1010.2 |
| 20260901124558 | 59 | 188 | 0.0 | 1.7 | 0.00 | 0.00 | 0.00 | 86 | 1010.1 |
| 20260901123058 | 58 | 172 | 0.9 | 2.6 | 0.00 | 0.00 | 0.00 | 86 | 1010.1 |
| 20260901121610 | 57 | 0 | 0.0 | 0.9 | 0.00 | 0.00 | 0.00 | 85 | 1010.0 |
| 20260901120112 | 56 | 0 | 0.0 | 0.0 | 0.00 | 0.00 | 0.00 | 85 | 1010.0 |
| 20260901114606 | 56 | 0 | 0.0 | 0.0 | 0.00 | 0.00 | 0.00 | 85 | 1009.8 |
| 20260901113100 | 55 | 0 | 0.0 | 0.0 | 0.00 | 0.00 | 0.00 | 86 | 1009.8 |
| 20260901111609 | 56 | 0 | 0.0 | 0.0 | 0.00 | 0.00 | 0.00 | 86 | 1009.9 |
| 20260901110059 | 56 | 0 | 0.0 | 0.0 | 0.00 | 0.00 | 0.00 | 86 | 1009.9 |
| 20260901104600 | 56 | 0 | 0.0 | 0.0 | 0.00 | 0.00 | 0.00 | 86 | 1009.9 |
| 20260901103107 | 56 | 0 | 0.0 | 0.0 | 0.00 | 0.00 | 0.00 | 86 | 1009.8 |
| 20260901101601 | 56 | 0 | 0.0 | 0.0 | 0.00 | 0.00 | 0.00 | 86 | 1009.7 |
| 20260901100109 | 57 | 0 | 0.0 | 0.0 | 0.00 | 0.00 | 0.00 | 86 | 1009.5 |
| 20260901094601 | 57 | 0 | 0.0 | 0.0 | 0.00 | 0.00 | 0.00 | 86 | 1009.3 |
| 20260901093108 | 57 | 0 | 0.0 | 0.0 | 0.00 | 0.00 | 0.00 | 86 | 1009.4 |
| 20260901091620 | 57 | 0 | 0.0 | 0.0 | 0.00 | 0.00 | 0.00 | 86 | 1009.4 |
| 20260901090107 | 58 | 0 | 0.0 | 0.0 | 0.00 | 0.00 | 0.00 | 85 | 1009.4 |
| 20260901084608 | 58 | 0 | 0.0 | 0.0 | 0.00 | 0.00 | 0.00 | 86 | 1009.3 |
| 20260901083106 | 58 | 0 | 0.0 | 0.0 | 0.00 | 0.00 | 0.00 | 85 | 1009.3 |
| 20260901081559 | 59 | 0 | 0.0 | 0.0 | 0.00 | 0.00 | 0.00 | 85 | 1009.4 |
| 20260901080106 | 59 | 0 | 0.0 | 0.0 | 0.00 | 0.00 | 0.00 | 85 | 1009.1 |
| 20260901074605 | 59 | 0 | 0.0 | 0.0 | 0.00 | 0.00 | 0.00 | 84 | 1009.2 |
| 20260901073108 | 59 | 0 | 0.0 | 0.0 | 0.00 | 0.00 | 0.00 | 83 | 1009.1 |
| 20260901071604 | 59 | 0 | 0.0 | 0.0 | 0.00 | 0.00 | 0.00 | 82 | 1009.3 |
| 20260901070059 | 60 | 0 | 0.0 | 0.0 | 0.00 | 0.00 | 0.00 | 81 | 1009.2 |
| 20260901064614 | 60 | 0 | 0.0 | 0.0 | 0.00 | 0.00 | 0.00 | 81 | 1009.2 |
| 20260901063059 | 60 | 0 | 0.0 | 0.0 | 0.00 | 0.00 | 0.00 | 81 | 1009.2 |
| 20260901061602 | 61 | 0 | 0.0 | 0.0 | 0.00 | 0.00 | 0.00 | 80 | 1009.2 |
| 20260901060105 | 61 | 0 | 0.0 | 0.0 | 0.00 | 0.00 | 0.00 | 80 | 1009.4 |
| 20260901054601 | 62 | 0 | 0.0 | 0.0 | 0.00 | 0.00 | 0.00 | 79 | 1009.3 |
| 20260901053105 | 62 | 0 | 0.0 | 0.0 | 0.00 | 0.00 | 0.00 | 78 | 1009.4 |
| 20260901051555 | 63 | 0 | 0.0 | 0.0 | 0.00 | 0.00 | 0.00 | 78 | 1009.6 |
| 20260901050105 | 63 | 0 | 0.0 | 0.0 | 0.00 | 0.00 | 0.00 | 78 | 1009.6 |
| 20260901044603 | 63 | 0 | 0.0 | 0.0 | 0.00 | 0.00 | 0.00 | 78 | 1009.7 |
| 20260901043059 | 63 | 0 | 0.0 | 0.0 | 0.00 | 0.00 | 0.00 | 77 | 1009.6 |
| 20260901041557 | 64 | 0 | 0.0 | 0.0 | 0.00 | 0.00 | 0.00 | 76 | 1009.6 |
| 20260901040106 | 64 | 0 | 0.0 | 0.0 | 0.00 | 0.00 | 0.00 | 75 | 1009.5 |
| 20260901034557 | 65 | 0 | 0.0 | 0.0 | 0.00 | 0.00 | 0.00 | 74 | 1009.4 |
| 20260901033059 | 66 | 0 | 0.0 | 0.0 | 0.00 | 0.00 | 0.00 | 72 | 1009.3 |
| 20260901031557 | 67 | 0 | 0.0 | 0.0 | 0.00 | 0.00 | 0.00 | 70 | 1009.1 |
| 20260901030104 | 68 | 0 | 0.0 | 0.0 | 0.00 | 0.00 | 0.00 | 67 | 1009.0 |
| 20260901024611 | 69 | 0 | 0.0 | 0.0 | 0.00 | 0.00 | 0.00 | 64 | 1009.0 |
| 20260901023104 | 71 | 0 | 0.0 | 1.7 | 0.00 | 0.00 | 0.00 | 61 | 1008.9 |
| 20260901021604 | 71 | 0 | 0.0 | 0.0 | 0.00 | 0.00 | 0.00 | 60 | 1008.9 |
| 20260901020100 | 72 | 0 | 0.0 | 0.9 | 0.00 | 0.00 | 0.00 | 59 | 1009.0 |
| 20260901014606 | 73 | 0 | 0.0 | 0.0 | 0.00 | 0.00 | 0.00 | 57 | 1008.9 |
| 20260901013116 | 75 | 0 | 0.0 | 0.9 | 0.00 | 0.00 | 0.00 | 55 | 1008.9 |
| 20260901011559 | 75 | 0 | 0.0 | 2.6 | 0.00 | 0.00 | 0.00 | 53 | 1008.9 |
| 20260901010114 | 77 | 25 | 0.0 | 1.7 | 0.00 | 0.00 | 0.00 | 51 | 1008.9 |
| 20260901004610 | 78 | 0 | 0.0 | 1.7 | 0.00 | 0.00 | 0.00 | 49 | 1008.9 |
| 20260901003103 | 81 | 11 | 0.9 | 2.6 | 0.00 | 0.00 | 0.00 | 45 | 1009.0 |
| 20260901001601 | 81 | 20 | 0.0 | 3.5 | 0.00 | 0.00 | 0.00 | 45 | 1009.1 |
| 20260901000107 | 83 | 178 | 0.9 | 4.3 | 0.00 | 0.00 | 0.00 | 42 | 1009.1 |
| 20260831234633 | 83 | 169 | 0.9 | 4.3 | 0.00 | 0.00 | 0.00 | 42 | 1009.2 |
| 20260831233101 | 82 | 11 | 0.9 | 3.5 | 0.00 | 0.00 | 0.00 | 43 | 1009.3 |
| 20260831231604 | 81 | 162 | 0.9 | 3.5 | 0.00 | 0.00 | 0.00 | 44 | 1009.5 |
| 20260831230113 | 81 | 129 | 0.9 | 4.3 | 0.00 | 0.00 | 0.00 | 44 | 1009.6 |
| 20260831224559 | 82 | 0 | 0.0 | 3.5 | 0.00 | 0.00 | 0.00 | 42 | 1009.9 |
| 20260831223110 | 81 | 36 | 0.9 | 4.3 | 0.00 | 0.00 | 0.00 | 43 | 1010.0 |
| 20260831221558 | 80 | 167 | 0.9 | 3.5 | 0.00 | 0.00 | 0.00 | 45 | 1010.1 |
| 20260831220104 | 81 | 167 | 0.0 | 3.5 | 0.00 | 0.00 | 0.00 | 44 | 1010.2 |
| 20260831214623 | 79 | 182 | 0.0 | 3.5 | 0.00 | 0.00 | 0.00 | 45 | 1010.3 |
| 20260831213109 | 79 | 161 | 0.9 | 5.2 | 0.00 | 0.00 | 0.00 | 46 | 1010.7 |
| 20260831211605 | 79 | 163 | 0.9 | 4.3 | 0.00 | 0.00 | 0.00 | 47 | 1010.8 |
| 20260831210106 | 78 | 147 | 0.9 | 5.2 | 0.00 | 0.00 | 0.00 | 48 | 1010.9 |
| 20260831204609 | 77 | 166 | 0.9 | 4.3 | 0.00 | 0.00 | 0.00 | 49 | 1011.1 |
| 20260831203104 | 76 | 23 | 0.9 | 5.2 | 0.00 | 0.00 | 0.00 | 51 | 1011.2 |
| 20260831201620 | 75 | 159 | 0.0 | 2.6 | 0.00 | 0.00 | 0.00 | 53 | 1011.4 |
| 20260831194603 | 72 | 165 | 0.9 | 3.5 | 0.00 | 0.00 | 0.00 | 58 | 1011.7 |
| 20260831193131 | 71 | 160 | 0.0 | 5.2 | 0.00 | 0.00 | 0.00 | 59 | 1012.0 |
| 20260831191601 | 70 | 4 | 1.7 | 3.5 | 0.00 | 0.00 | 0.00 | 60 | 1012.2 |
| 20260831190058 | 70 | 0 | 0.0 | 3.5 | 0.00 | 0.00 | 0.00 | 62 | 1012.5 |
| 20260831184605 | 68 | 17 | 0.9 | 3.5 | 0.00 | 0.00 | 0.00 | 65 | 1012.8 |
| 20260831183104 | 67 | 17 | 0.0 | 4.3 | 0.00 | 0.00 | 0.00 | 65 | 1013.0 |
| 20260831181612 | 66 | 0 | 0.0 | 4.3 | 0.00 | 0.00 | 0.00 | 67 | 1013.2 |
| 20260831180110 | 65 | 0 | 0.9 | 2.6 | 0.00 | 0.00 | 0.00 | 68 | 1013.3 |
| 20260831174559 | 64 | 0 | 0.0 | 3.5 | 0.00 | 0.00 | 0.00 | 71 | 1013.5 |
| 20260831173103 | 63 | 0 | 0.0 | 1.7 | 0.00 | 0.00 | 0.00 | 73 | 1013.6 |
| 20260831171602 | 61 | 160 | 0.0 | 2.6 | 0.00 | 0.00 | 0.00 | 78 | 1013.7 |
| 20260831170100 | 60 | 20 | 0.0 | 1.7 | 0.00 | 0.00 | 0.00 | 79 | 1013.9 |
| 20260831164610 | 60 | 0 | 0.0 | 1.7 | 0.00 | 0.00 | 0.00 | 81 | 1014.0 |
| 20260831163102 | 59 | 25 | 0.0 | 1.7 | 0.00 | 0.00 | 0.00 | 83 | 1014.3 |